Location: Newark
(51.0000°N, 11.4100°E)
Time: 07:30:24
(UTC+00:00)

Vanguard 1 Rocket - All Passes

Search period start: 18 November 2019 00:00
Search period end: 28 November 2019 00:00
Orbit: 651 x 4226 km, 34.3° (Epoch: 17 November)

Date Brightness Start Highest point End Pass type
(mag) Time Alt. Az. Time Alt. Az. Time Alt. Az.
18 Nov - 05:27:56 10° SSW 05:30:56 15° S 05:34:41 10° SE visible
18 Nov - 07:53:06 10° SSW 07:55:25 11° SSW 07:58:07 10° S daylight
19 Nov - 04:18:16 10° SSW 04:20:23 13° S 04:22:45 10° SE visible
19 Nov - 06:41:51 10° SSW 06:44:26 13° S 06:47:31 10° SSE daylight
20 Nov - 05:31:23 10° SSW 05:33:40 13° S 05:36:18 10° SSE visible
21 Nov - 04:21:20 10° SSW 04:23:03 12° S 04:24:55 10° SSE visible
22 Nov - 03:11:55 10° S 03:12:32 10° S 03:13:09 10° SSE visible
23 Nov - 04:25:08 10° S 04:25:44 10° S 04:26:21 10° S visible
24 Nov - 03:14:37 10° S 03:15:12 10° S 03:15:46 10° S visible
27 Nov - 02:06:05 10° SSW 02:07:20 11° S 02:08:31 10° SSE night (unlit)
